TimeEDT,TemperatureF,Dew PointF,Humidity,Sea Level PressureIn,VisibilityMPH,Wind Direction,Wind SpeedMPH,Gust SpeedMPH,PrecipitationIn,Events,Conditions,WindDirDegrees,DateUTC
12:15 AM,17.6,12.2,79,29.87,10.0,NNW,5.8,-,N/A,,Overcast,330,2014-03-26 04:15:00
12:35 AM,17.6,12.2,79,29.88,10.0,NW,3.5,-,N/A,,Overcast,320,2014-03-26 04:35:00
12:55 AM,17.6,10.4,73,29.88,10.0,NW,3.5,-,N/A,,Overcast,320,2014-03-26 04:55:00
1:15 AM,17.6,12.2,79,29.88,10.0,NW,6.9,-,N/A,,Overcast,310,2014-03-26 05:15:00
1:35 AM,17.6,14.0,86,29.88,4.0,NW,4.6,-,N/A,Snow,Light Snow,310,2014-03-26 05:35:00
1:55 AM,17.6,14.0,86,29.89,10.0,NW,4.6,-,N/A,Snow,Light Snow,320,2014-03-26 05:55:00
2:15 AM,17.6,12.2,79,29.89,10.0,NW,6.9,-,N/A,,Mostly Cloudy,320,2014-03-26 06:15:00
2:35 AM,15.8,10.4,79,29.89,10.0,NNW,5.8,-,N/A,,Scattered Clouds,330,2014-03-26 06:35:00
2:55 AM,15.8,10.4,79,29.90,10.0,NW,6.9,-,N/A,,Scattered Clouds,320,2014-03-26 06:55:00
3:15 AM,15.8,10.4,79,29.90,7.0,NW,4.6,-,N/A,Snow,Light Snow,320,2014-03-26 07:15:00
3:35 AM,14.0,12.2,93,29.90,1.5,WNW,6.9,-,N/A,Snow,Light Snow,300,2014-03-26 07:35:00
3:55 AM,14.0,10.4,86,29.91,1.0,WNW,10.4,17.3,N/A,Snow,Light Snow,300,2014-03-26 07:55:00
4:15 AM,12.2,8.6,85,29.92,7.0,NW,6.9,16.1,N/A,Snow,Light Snow,320,2014-03-26 08:15:00
4:35 AM,12.2,6.8,79,29.93,10.0,WNW,8.1,16.1,N/A,,Overcast,300,2014-03-26 08:35:00
4:55 AM,10.4,5.0,79,29.94,10.0,WNW,8.1,16.1,N/A,,Overcast,300,2014-03-26 08:55:00
5:15 AM,10.4,5.0,79,29.94,10.0,NW,9.2,-,N/A,,Overcast,310,2014-03-26 09:15:00
5:35 AM,10.4,5.0,79,29.95,7.0,WNW,8.1,17.3,N/A,Snow,Light Snow,300,2014-03-26 09:35:00
5:55 AM,8.6,5.0,85,29.96,10.0,WNW,6.9,-,N/A,,Mostly Cloudy,300,2014-03-26 09:55:00
6:15 AM,8.6,3.2,79,29.96,10.0,WNW,3.5,-,N/A,,Scattered Clouds,290,2014-03-26 10:15:00
6:35 AM,8.6,3.2,79,29.97,10.0,WNW,9.2,-,N/A,,Scattered Clouds,300,2014-03-26 10:35:00
6:55 AM,8.6,1.4,73,29.97,10.0,WNW,8.1,-,N/A,,Clear,290,2014-03-26 10:55:00
7:15 AM,6.8,-0.4,72,29.98,10.0,WNW,10.4,-,N/A,,Clear,300,2014-03-26 11:15:00
7:35 AM,6.8,1.4,79,29.99,10.0,WNW,10.4,19.6,N/A,,Scattered Clouds,290,2014-03-26 11:35:00
7:55 AM,6.8,1.4,79,30.00,7.0,WNW,12.7,20.7,N/A,,Mostly Cloudy,290,2014-03-26 11:55:00
8:15 AM,6.8,1.4,79,30.02,5.0,NW,6.9,17.3,N/A,,Haze,310,2014-03-26 12:15:00
8:35 AM,6.8,1.4,79,30.02,5.0,WNW,10.4,18.4,N/A,,Haze,290,2014-03-26 12:35:00
8:55 AM,8.6,1.4,73,30.03,1.8,NW,11.5,18.4,N/A,,Haze,310,2014-03-26 12:55:00
9:10 AM,8.6,1.4,73,30.03,3.0,WNW,9.2,25.3,N/A,,Haze,290,2014-03-26 13:10:00
9:35 AM,8.6,1.4,73,30.04,5.0,WNW,10.4,17.3,N/A,,Haze,300,2014-03-26 13:35:00
9:55 AM,10.4,3.2,73,30.05,7.0,WNW,15.0,21.9,N/A,,Overcast,300,2014-03-26 13:55:00
10:15 AM,12.2,3.2,67,30.06,7.0,WNW,8.1,23.0,N/A,,Overcast,300,2014-03-26 14:15:00
10:35 AM,12.2,3.2,67,30.07,7.0,NW,13.8,23.0,N/A,,Overcast,310,2014-03-26 14:35:00
10:55 AM,12.2,3.2,67,30.07,5.0,WNW,12.7,24.2,N/A,,Haze,300,2014-03-26 14:55:00
11:15 AM,12.2,3.2,67,30.08,2.5,WNW,10.4,19.6,N/A,,Haze,300,2014-03-26 15:15:00
11:35 AM,12.2,3.2,67,30.08,4.0,NW,10.4,20.7,N/A,,Haze,320,2014-03-26 15:35:00
11:55 AM,14.0,1.4,57,30.08,7.0,WNW,11.5,20.7,N/A,,Overcast,300,2014-03-26 15:55:00
12:15 PM,14.0,1.4,57,30.08,10.0,WNW,12.7,21.9,N/A,,Mostly Cloudy,290,2014-03-26 16:15:00
12:35 PM,14.0,1.4,57,30.08,10.0,WNW,9.2,18.4,N/A,,Mostly Cloudy,300,2014-03-26 16:35:00
12:55 PM,15.8,1.4,53,30.08,10.0,West,8.1,20.7,N/A,,Mostly Cloudy,280,2014-03-26 16:55:00
1:15 PM,14.0,1.4,57,30.08,10.0,WNW,9.2,17.3,N/A,,Mostly Cloudy,300,2014-03-26 17:15:00
1:35 PM,15.8,1.4,53,30.09,10.0,WNW,11.5,19.6,N/A,,Mostly Cloudy,300,2014-03-26 17:35:00
1:55 PM,15.8,1.4,53,30.09,10.0,WNW,11.5,26.5,N/A,,Overcast,290,2014-03-26 17:55:00
2:15 PM,17.6,1.4,49,30.09,10.0,West,8.1,23.0,N/A,,Overcast,280,2014-03-26 18:15:00
2:35 PM,17.6,3.2,53,30.08,10.0,NW,9.2,-,N/A,,Overcast,310,2014-03-26 18:35:00
2:55 PM,19.4,3.2,49,30.08,10.0,WNW,12.7,19.6,N/A,,Mostly Cloudy,300,2014-03-26 18:55:00
3:15 PM,15.8,3.2,58,30.08,10.0,WNW,13.8,21.9,N/A,,Overcast,300,2014-03-26 19:15:00
3:35 PM,19.4,3.2,49,30.09,10.0,WNW,15.0,24.2,N/A,,Overcast,300,2014-03-26 19:35:00
3:55 PM,17.6,3.2,53,30.09,10.0,WNW,6.9,23.0,N/A,,Overcast,290,2014-03-26 19:55:00
4:35 PM,15.8,3.2,58,30.10,10.0,WNW,16.1,25.3,N/A,,Scattered Clouds,300,2014-03-26 20:35:00
5:35 PM,14.0,3.2,62,30.12,10.0,WNW,10.4,25.3,N/A,,Mostly Cloudy,300,2014-03-26 21:35:00
6:15 PM,14.0,3.2,62,30.11,10.0,WNW,10.4,18.4,N/A,,Mostly Cloudy,290,2014-03-26 22:15:00
7:15 PM,12.2,3.2,67,30.12,10.0,WNW,8.1,-,N/A,,Scattered Clouds,290,2014-03-26 23:15:00
8:15 PM,12.2,3.2,67,30.15,10.0,West,8.1,-,N/A,,Scattered Clouds,280,2014-03-27 00:15:00
9:55 PM,10.4,3.2,73,30.16,10.0,West,4.6,-,N/A,,Scattered Clouds,270,2014-03-27 01:55:00
10:55 PM,10.4,3.2,73,30.16,10.0,WSW,5.8,-,N/A,,Clear,240,2014-03-27 02:55:00
11:15 PM,10.4,3.2,73,30.16,10.0,WSW,5.8,-,N/A,,Clear,250,2014-03-27 03:15:00
11:35 PM,10.4,3.2,73,30.17,10.0,WSW,3.5,-,N/A,,Clear,250,2014-03-27 03:35:00
11:55 PM,10.4,5.0,79,30.17,10.0,WSW,3.5,-,N/A,,Clear,250,2014-03-27 03:55:00